Weather History for KBGD - August, 2013

Change the Weather History Date:

Tuesday, August 20, 2013

  Actual Average Record
Temperature  
Mean Temperature 84 °F 80 °F  
Max Temperature 96 °F 92 °F 103 °F (2007)
Min Temperature 71 °F 68 °F 52 °F (1956)
Degree Days  
Heating Degree Days 0 0  
Month to date heating degree days 0 0  
Since 1 June heating degree days 0 3  
Since 1 July heating degree days 0 0  
Cooling Degree Days 19 15  
Month to date cooling degree days 311 323  
Year to date cooling degree days 1596 1404  
Since 1 June cooling degree days 1308 1207  
Growing Degree Days 34 (Base 50)    
Moisture  
Dew Point 58 °F    
Average Humidity 44    
Maximum Humidity 61    
Minimum Humidity 26    
Precipitation  
Precipitation 0.00 in 0.13 in 0.98 in (1965)
Month to date precipitation 2.73 1.96  
Year to date precipitation 11.56 14.80  
Snow  
Snow 0.00 in - 0.00 in (2013)
Month to date snowfall 0.0  
Since 1 June snowfall 0.0  
Since 1 July snowfall 0.0  
Snow Depth 0.00 in    
Sea Level Pressure  
Sea Level Pressure 29.90 in    
Wind  
Wind Speed 12 mph (SSE)    
Max Wind Speed 21 mph    
Max Gust Speed 28 mph    
Visibility 10 miles    
Events      
T = Trace of Precipitation, MM = Missing Value Source: NWS Daily Summary

Daily Weather History Graph

Daily Weather History Graph

Search for Another Location

Airport or City:

Trip Planner

Search our weather history database for the weather conditions in past years. The results will help you decide how hot, cold, wet, or windy it might be!

Date:

Astronomy

Aug. 20, 2013 Rise Set
Actual Time 7:08 AM CDT 8:28 PM CDT
Civil Twilight 6:41 AM CDT 8:55 PM CDT
Nautical Twilight 6:09 AM CDT 9:27 PM CDT
Astronomical Twilight 5:36 AM CDT 10:00 PM CDT
Moon 8:03 PM CDT (8/20) 6:39 AM CDT (8/20)
Length of Visible Light 14h 13m
Length of Day
13h 19m
Full, 100% of the Moon is Illuminated
Aug 20
Full
Aug 20
Full
Aug 28
Last Quarter
Sep 5
New
Sep 12
First Quarter

Hourly Weather History & Observations

Time (CDT) Temp. Heat Index Dew Point Humidity Pressure Visibility Wind Dir Wind Speed Gust Speed Precip Events Conditions
12:51 AM 78.1 °F - 59.0 °F 52% 29.91 in 10.0 mi SSE 17.3 mph 24.2 mph N/A   Clear
1:51 AM 75.9 °F - 59.0 °F 56% 29.92 in 10.0 mi South 10.4 mph - N/A   Clear
2:51 AM 75.0 °F - 59.0 °F 57% 29.90 in 10.0 mi SSE 9.2 mph 19.6 mph N/A   Clear
3:51 AM 73.9 °F - 57.9 °F 57% 29.90 in 10.0 mi SSE 8.1 mph - N/A   Clear
4:51 AM 73.0 °F - 57.9 °F 59% 29.89 in 10.0 mi South 11.5 mph - N/A   Clear
5:51 AM 72.0 °F - 57.0 °F 59% 29.90 in 10.0 mi SSE 8.1 mph - N/A   Clear
6:51 AM 72.0 °F - 57.0 °F 59% 29.90 in 10.0 mi SSE 9.2 mph 18.4 mph N/A   Clear
7:51 AM 72.0 °F - 57.0 °F 59% 29.91 in 10.0 mi SSE 11.5 mph 19.6 mph N/A   Clear
8:51 AM 73.9 °F - 57.9 °F 57% 29.92 in 10.0 mi SSE 12.7 mph - N/A   Clear
9:51 AM 78.1 °F - 59.0 °F 52% 29.94 in 10.0 mi South 13.8 mph - N/A   Clear
10:51 AM 82.0 °F 82.1 °F 59.0 °F 45% 29.93 in 10.0 mi South 11.5 mph - N/A   Clear
11:51 AM 84.0 °F 83.8 °F 59.0 °F 43% 29.92 in 10.0 mi South 9.2 mph - N/A   Clear
12:51 PM 88.0 °F 87.1 °F 59.0 °F 37% 29.91 in 10.0 mi SSE 11.5 mph - N/A   Clear
1:51 PM 89.1 °F 88.0 °F 57.9 °F 35% 29.90 in 10.0 mi SSE 12.7 mph 23.0 mph N/A   Clear
2:51 PM 91.9 °F 91.5 °F 60.1 °F 34% 29.88 in 10.0 mi SSE 12.7 mph 23.0 mph N/A   Clear
3:51 PM 93.9 °F 92.9 °F 57.9 °F 30% 29.86 in 10.0 mi South 16.1 mph 23.0 mph N/A   Clear
4:51 PM 95.0 °F 93.4 °F 55.9 °F 27% 29.85 in 10.0 mi South 15.0 mph 26.5 mph N/A   Clear
5:51 PM 93.9 °F 92.0 °F 55.0 °F 27% 29.86 in 10.0 mi South 18.4 mph 24.2 mph N/A   Clear
6:51 PM 93.0 °F 91.1 °F 55.0 °F 28% 29.86 in 10.0 mi South 13.8 mph 24.2 mph N/A   Clear
7:51 PM 91.0 °F 88.7 °F 54.0 °F 28% 29.85 in 10.0 mi South 13.8 mph - N/A   Clear
8:51 PM 87.1 °F 85.9 °F 57.0 °F 36% 29.87 in 10.0 mi SSE 9.2 mph - N/A   Clear
9:51 PM 82.9 °F 82.8 °F 59.0 °F 44% 29.90 in 10.0 mi SSE 10.4 mph - N/A   Clear
10:51 PM 81.0 °F 81.3 °F 59.0 °F 47% 29.91 in 10.0 mi SSE 9.2 mph - N/A   Clear
11:51 PM 79.0 °F - 59.0 °F 50% 29.92 in 10.0 mi SSE 16.1 mph 21.9 mph N/A   Clear